Terminal Aerodrome Forecast
Issued by NWS

Home | Current Version | Previous Version | Graphics & Text | Print | Product List | Glossary On
Versions: 1 2 3 4 5 6 7 8 9 10 11 12 13 14 15 16 17 18 19 20 21 22
000
FTUS43 KFGF 271559 AAC
TAFBJI
TAF AMD
KBJI 271559Z 2716/2812 13009KT P6SM SCT250
      TEMPO 2716/2717 BKN025
     FM271700 15010G18KT P6SM SCT250
     FM281000 15015G23KT P6SM -TSRA BKN030CB=

USA.gov is the U.S. government's official web portal to all federal, state and local government web resources and services.